Weather in Bilovodsk

Ukraine / Luhansk Region     49°12′24″N   39°34′36″E
temp.,
°C
wind,
m/s
gust,
m/s
humid.,
%
clouds,
%
prec.,
mm/h
press.,
hPa
HPBL,
m
16 may, mon
mon1600:00+9w410935 0.0 1011206
03:00+8w4109579 0.0 1011219
06:00+9w511905 0.0 1011363
09:00+13wnw710665 0.1 10121374
12:00+16nw8114673 0.3 10122366
15:00+16wnw8104483 0.3 10132388
18:00+15wnw7105442 0.1 10131440
21:00+11w5127695 0.3 1014439
17 may, tue
tue1700:00+9w41185100 0.0 1013251
03:00+7w5119114 0.1 1013277
06:00+7wnw512815 0.0 1013444
09:00+13wnw711515 0.0 10131901
12:00+14wnw8104497 0.0 10122361
15:00+14w7105694 0.4 10111860
18:00+13wnw610645 0.7 10111409
21:00+10w71182100 1.3 1011487
18 may, wed
wed1800:00+7wsw4109260 0.5 1009252
03:00+6wsw49950 0.5 1009193
06:00+6w388912 0.0 1009234
09:00+12wnw576153 0.0 10091022
12:00+15wnw554575 0.1 10092238
15:00+14nw665494 0.7 10101495
18:00+12nnw67695 0.9 10111025
21:00+8nw389096 1.0 1013145
19 may, thu
thu1900:00+6nw39955 0.0 1015184
03:00+8nnw4108598 0.0 1015321
06:00+7nw49865 0.0 1017311
09:00+12nw56665 0.0 1018896
12:00+14nw7855100 0.2 10191757
15:00+15nw71049100 0.2 10182016
18:00+14wnw7116083 0.0 10181356
21:00+10w41279100 0.2 1018313
20 may, fri
fri2000:00+8nw348999 0.1 101877
03:00+8nne3495100 1.6 1018356
06:00+8nnw2595100 1.2 1019312
09:00+12n346581 1.4 10201283
12:00+14nw2351100 0.2 10191848
15:00+14w2449100 0.2 10181650
18:00+14sw2359100 0.0 1017196
21:00+11s4861100 0.0 1016200